EW7157 Weather Reports


time (UTC)temp
C
wind
direction
speed
KPH
gust
KPH
rain 1hr
cm
rain 24hr
cm
rain mn
cm
humidity
%
barometer
mb
20260831042416 21 135 0.0 0.0 0.05 1.45 0.05 94 1041.7
20260831042314 21 135 0.0 0.0 0.05 1.45 0.05 93 1041.7
20260831041315 21 135 0.0 0.0 0.03 1.45 0.03 94 1041.7
20260831040414 21 135 0.0 0.0 0.03 1.42 0.00 93 1041.6
20260831040314 21 135 0.0 0.0 0.03 1.42 0.00 93 1041.6
20260831035317 21 135 0.0 0.0 0.03 1.42 1.42 93 1041.7
20260831034318 21 135 0.0 0.0 0.05 1.42 1.42 93 1041.8
20260831033317 21 135 0.0 0.0 0.79 1.42 1.42 92 1041.6
20260831030218 21 135 0.0 0.0 1.40 1.40 1.40 91 1041.4
20260831025216 21 135 0.0 0.0 1.40 1.40 1.40 89 1041.3
20260831024218 22 135 0.0 1.6 1.35 1.35 1.32 89 1041.8
20260831024119 22 129 0.0 0.0 1.32 1.32 1.22 90 1042.0
20260831023117 23 207 1.6 8.0 0.51 0.51 0.46 90 1041.5
20260831022117 23 182 0.0 3.2 0.03 0.03 0.03 87 1041.4
20260831022017 23 202 0.0 1.6 0.03 0.03 0.03 87 1041.4
20260831021015 23 202 0.0 0.0 0.00 0.00 0.00 86 1041.3
20260831020017 23 202 0.0 0.0 0.00 0.00 0.00 86 1041.1
20260831015017 23 202 0.0 0.0 0.00 0.00 0.00 86 1041.2
20260831014016 23 202 0.0 0.0 0.00 0.00 0.00 86 1041.3
20260831011016 23 202 0.0 0.0 0.00 0.00 0.00 84 1041.1
20260831010017 23 202 0.0 0.0 0.00 0.00 0.00 85 1041.2
20260831005916 23 202 0.0 0.0 0.00 0.00 0.00 85 1041.1
20260831004917 23 202 0.0 0.0 0.00 0.00 0.00 85 1041.1
20260831004016 23 202 0.0 0.0 0.00 0.00 0.00 85 1041.1
20260831002018 23 202 0.0 0.0 0.00 0.00 0.00 83 1040.8
20260831000018 23 202 0.0 0.0 0.00 0.00 0.00 81 1040.5
20260830235015 23 202 0.0 0.0 0.00 0.00 0.00 79 1040.6
20260830234916 23 202 0.0 0.0 0.00 0.00 0.00 79 1040.7
20260830233917 24 202 0.0 0.0 0.00 0.00 0.00 79 1040.7
20260830232915 24 202 0.0 0.0 0.00 0.00 0.00 79 1040.7
20260830231917 25 202 0.0 0.0 0.00 0.00 0.00 78 1040.8
20260830230918 25 202 0.0 0.0 0.00 0.00 0.00 78 1040.9
20260830230817 25 202 0.0 0.0 0.00 0.00 0.00 78 1040.9
20260830225818 25 202 0.0 0.0 0.00 0.00 0.00 75 1040.9
20260830224818 25 202 0.0 0.0 0.00 0.00 0.00 75 1040.6
20260830223817 26 202 0.0 0.0 0.00 0.00 0.00 76 1040.7
20260830222915 26 202 0.0 0.0 0.00 0.00 0.00 76 1040.5
20260830221917 26 202 0.0 0.0 0.00 0.00 0.00 74 1040.6
20260830220823 26 202 0.0 0.0 0.00 0.00 0.00 73 1040.7
20260830215817 26 202 0.0 0.0 0.00 0.00 0.00 74 1040.5
20260830214817 26 202 0.0 0.0 0.00 0.00 0.00 74 1040.4
20260830214719 26 202 0.0 0.0 0.00 0.00 0.00 73 1040.4
20260830213816 26 202 0.0 0.0 0.00 0.00 0.00 72 1040.4
20260830212916 26 180 0.0 0.0 0.00 0.00 0.00 72 1040.4
20260830210917 27 180 0.0 0.0 0.00 0.00 0.00 71 1040.4
20260830205919 27 270 0.0 0.0 0.00 0.00 0.00 71 1040.5
20260830204918 27 360 0.0 0.0 0.00 0.00 0.00 70 1040.6
20260830203916 27 360 0.0 0.0 0.00 0.00 0.00 69 1040.6
20260830202916 27 225 0.0 0.0 0.00 0.00 0.00 66 1040.5
20260830201916 27 225 0.0 0.0 0.00 0.00 0.00 67 1040.5
20260830201819 27 225 0.0 0.0 0.00 0.00 0.00 68 1040.5
20260830200916 26 360 0.0 0.0 0.00 0.00 0.00 69 1040.7
20260830200818 26 360 0.0 0.0 0.00 0.00 0.00 69 1040.7
20260830195817 26 217 0.0 0.0 0.00 0.00 0.00 69 1041.0
20260830194817 27 360 0.0 0.0 0.00 0.00 0.00 67 1041.1
20260830193818 28 360 0.0 3.2 0.00 0.00 0.00 63 1040.9
20260830192916 28 360 0.0 1.6 0.00 0.00 0.00 62 1041.2
20260830191016 28 45 0.0 0.0 0.00 0.00 0.00 63 1041.3
20260830185116 28 360 0.0 0.0 0.00 0.00 0.00 65 1041.6
20260830183116 27 360 0.0 0.0 0.00 0.00 0.00 67 1041.8
20260830182116 27 9 0.0 3.2 0.00 0.00 0.00 69 1042.0
20260830181117 26 22 0.0 0.0 0.00 0.00 0.00 70 1042.1
20260830175218 26 119 0.0 0.0 0.00 0.00 0.00 69 1042.4
20260830174216 26 135 0.0 0.0 0.00 0.00 0.00 69 1042.6
20260830172315 26 315 0.0 0.0 0.00 0.00 0.00 73 1042.7
20260830170317 26 315 0.0 0.0 0.00 0.00 0.00 70 1043.1
20260830165416 27 360 0.0 0.0 0.00 0.00 0.00 69 1043.2
20260830163318 25 315 0.0 0.0 0.00 0.00 0.00 76 1043.1
20260830163217 25 315 0.0 0.0 0.00 0.00 0.00 76 1043.1
20260830162216 25 360 0.0 0.0 0.00 0.00 0.00 74 1043.5
20260830161216 25 360 0.0 0.0 0.00 0.00 0.00 74 1043.5
20260830161118 25 360 0.0 0.0 0.00 0.00 0.00 75 1043.5
20260830160118 25 180 0.0 0.0 0.00 0.00 0.00 74 1043.5
20260830155216 25 180 0.0 0.0 0.00 0.00 0.00 74 1043.5
20260830153218 26 45 0.0 0.0 0.00 0.00 0.00 72 1043.7
20260830151216 25 45 0.0 1.6 0.00 0.00 0.00 73 1043.7
20260830151116 25 45 0.0 1.6 0.00 0.00 0.00 73 1043.7
20260830150131 25 193 0.0 0.0 0.00 0.00 0.00 74 1043.7
20260830145217 24 21 0.0 0.0 0.00 0.00 0.00 78 1043.7
20260830143217 22 225 0.0 0.0 0.00 0.00 0.00 82 1044.0
20260830142315 21 360 0.0 0.0 0.00 0.00 0.00 83 1044.2
20260830135416 20 157 0.0 0.0 0.00 0.00 0.00 88 1044.4
20260830134416 19 157 0.0 0.0 0.00 0.00 0.00 89 1044.6
20260830133416 18 157 0.0 0.0 0.00 0.00 0.00 90 1044.8
20260830131418 18 157 0.0 0.0 0.00 0.00 0.00 91 1045.1
20260830130516 17 157 0.0 0.0 0.00 0.00 0.00 91 1045.2
20260830125518 17 157 0.0 0.0 0.00 0.00 0.00 91 1045.3
20260830124535 17 157 0.0 0.0 0.00 0.00 0.00 92 1045.2
20260830122516 16 157 0.0 0.0 0.00 0.00 0.00 91 1045.2
20260830121517 16 157 0.0 0.0 0.00 0.00 0.00 93 1045.3
20260830120615 15 157 0.0 0.0 0.00 0.00 0.00 93 1045.4
20260830114616 15 157 0.0 0.0 0.00 0.00 0.00 93 1045.3
20260830113618 15 157 0.0 0.0 0.00 0.00 0.00 92 1045.3
20260830111615 15 157 0.0 0.0 0.00 0.00 0.00 92 1045.2
20260830110617 14 157 0.0 0.0 0.00 0.00 0.00 93 1045.4
20260830105633 14 157 0.0 0.0 0.00 0.00 0.00 93 1045.4
20260830104720 14 157 0.0 0.0 0.00 0.00 0.00 92 1045.4
20260830103817 14 157 0.0 0.0 0.00 0.00 0.00 93 1045.2
20260830102817 14 157 0.0 0.0 0.00 0.00 0.00 93 1045.2
20260830101916 13 157 0.0 0.0 0.00 0.00 0.00 93 1045.2
20260830100916 13 157 0.0 0.0 0.00 0.00 0.00 93 1045.3
20260830093916 13 157 0.0 0.0 0.00 0.00 0.00 93 1045.2
20260830092918 13 157 0.0 0.0 0.00 0.00 0.00 93 1045.1
20260830091917 13 157 0.0 0.0 0.00 0.00 0.00 92 1045.2
20260830090916 13 157 0.0 0.0 0.00 0.00 0.00 93 1045.0
20260830085918 13 157 0.0 0.0 0.00 0.00 0.00 93 1044.9
20260830084917 13 157 0.0 0.0 0.00 0.00 0.00 91 1045.2
20260830083917 13 157 0.0 0.0 0.00 0.00 0.00 92 1045.2
20260830083015 13 157 0.0 0.0 0.00 0.00 0.00 92 1045.4
20260830082017 13 157 0.0 0.0 0.00 0.00 0.00 92 1045.4
20260830081116 13 157 0.0 0.0 0.00 0.00 0.00 91 1045.4
20260830080118 13 157 0.0 0.0 0.00 0.00 0.00 90 1045.7
20260830075116 13 157 0.0 0.0 0.00 0.00 0.00 90 1045.7
20260830074115 13 157 0.0 0.0 0.00 0.00 0.00 92 1045.7
20260830074016 13 157 0.0 0.0 0.00 0.00 0.00 92 1045.9
20260830073017 13 157 0.0 0.0 0.00 0.00 0.00 92 1045.8
20260830072017 13 157 0.0 0.0 0.00 0.00 0.00 91 1045.6
20260830071916 13 157 0.0 0.0 0.00 0.00 0.00 91 1045.7
20260830070916 13 157 0.0 0.0 0.00 0.00 0.00 92 1045.4
20260830065915 13 157 0.0 0.0 0.00 0.00 0.00 90 1045.5
20260830064917 13 157 0.0 0.0 0.00 0.00 0.00 89 1045.8
20260830063916 13 157 0.0 0.0 0.00 0.00 0.00 89 1045.8
20260830061916 13 157 0.0 0.0 0.00 0.00 0.00 88 1045.8
20260830060932 13 157 0.0 0.0 0.00 0.00 0.00 89 1045.9
20260830060018 13 157 0.0 0.0 0.00 0.00 0.00 88 1045.9
20260830055040 13 157 0.0 0.0 0.00 0.00 0.00 87 1045.7
20260830054016 13 157 0.0 0.0 0.00 0.00 0.00 88 1045.8
20260830053918 13 157 0.0 0.0 0.00 0.00 0.00 88 1046.0
20260830053015 14 157 0.0 0.0 0.00 0.00 0.00 88 1045.9
20260830051016 14 157 0.0 0.0 0.00 0.00 0.00 86 1045.8
20260830050916 14 157 0.0 0.0 0.00 0.00 0.00 86 1045.8
20260830045916 14 157 0.0 0.0 0.00 0.00 0.00 87 1045.7
20260830044816 14 157 0.0 0.0 0.00 0.00 0.00 87 1045.8